UAE788 DGAA-OMDB

Flight info

Callsign UAE788
Flight time N/A
Altitude 33000
Route ACC UP685 DLA DCT ARKEV UR984 MPK UT139 SOPOG/N0494F350 UT139 ASKON L558 DASTU T139 GWZ T667 DWA UW885 ARSHI/N0491F360 UW885 HARGA/N0492F350 UB404 DEMGO B404 RIGAM/N0489F370 B400 DAXAM Y414 DEDSO R401 VELIK/N0489F360 R401 MUSAP/N0489F350 R401 PEDOG Q308 KIPOK Q568 IMPED
Aircraft B77W/H-SDE1E2E3FGHIJ1J2J3J4J5J6J7RWY/LB1D1

Departure

Time 2026-05-06 07:01
Airport Kotoka International Airport (DGAA)

Arrival

Time N/A
Airport Dubai International Airport (OMDB)
Time Latitude Longitude Altitude Speed Heading
2026-05-06 06:40 5.60160 -0.17186 216 ft 0 kts 292°
2026-05-06 06:52 5.60158 -0.17180 216 ft 4 kts 292°
2026-05-06 06:52 5.60147 -0.17154 219 ft 3 kts 292°
2026-05-06 06:52 5.60139 -0.17132 220 ft 4 kts 280°
2026-05-06 06:52 5.60139 -0.17106 214 ft 4 kts 251°
2026-05-06 06:53 5.60152 -0.17084 221 ft 4 kts 218°
2026-05-06 06:53 5.60175 -0.17071 214 ft 4 kts 199°
2026-05-06 06:53 5.60201 -0.17063 221 ft 3 kts 201°
2026-05-06 06:53 5.60203 -0.17062 220 ft 0 kts 202°
2026-05-06 06:56 5.60196 -0.17065 220 ft 6 kts 202°
2026-05-06 06:56 5.60116 -0.17098 218 ft 14 kts 202°
2026-05-06 06:56 5.60025 -0.17135 214 ft 14 kts 202°
2026-05-06 06:57 5.59927 -0.17175 220 ft 19 kts 202°
2026-05-06 06:57 5.59760 -0.17244 219 ft 29 kts 202°
2026-05-06 06:57 5.59586 -0.17318 219 ft 25 kts 203°
2026-05-06 06:57 5.59443 -0.17378 217 ft 15 kts 201°
2026-05-06 06:58 5.59344 -0.17418 211 ft 15 kts 202°
2026-05-06 06:58 5.59240 -0.17430 207 ft 17 kts 158°
2026-05-06 06:58 5.59166 -0.17337 203 ft 12 kts 117°
2026-05-06 06:58 5.59184 -0.17282 209 ft 7 kts 34°
2026-05-06 06:59 5.59201 -0.17273 204 ft 0 kts 21°
2026-05-06 06:59 5.59248 -0.17254 208 ft 20 kts 21°
2026-05-06 07:00 5.59484 -0.17159 214 ft 64 kts 22°
2026-05-06 07:00 5.60141 -0.16886 221 ft 138 kts 22°
2026-05-06 07:00 5.61218 -0.16441 232 ft 198 kts 21°
2026-05-06 07:00 5.62548 -0.15878 715 ft 205 kts 22°
2026-05-06 07:01 5.63868 -0.15280 1233 ft 209 kts 22°
2026-05-06 07:01 5.65176 -0.14668 1781 ft 213 kts 28°
2026-05-06 07:01 5.66281 -0.13631 2071 ft 231 kts 61°
2026-05-06 07:01 5.66681 -0.12032 2319 ft 250 kts 96°
2026-05-06 07:02 5.66290 -0.10284 2636 ft 265 kts 108°
2026-05-06 07:02 5.65756 -0.08479 3295 ft 273 kts 108°
2026-05-06 07:02 5.65208 -0.06648 4095 ft 275 kts 108°
2026-05-06 07:02 5.64657 -0.04808 4966 ft 275 kts 107°
2026-05-06 07:03 5.64107 -0.02969 5824 ft 275 kts 106°
2026-05-06 07:03 5.63565 -0.01147 6651 ft 275 kts 106°
2026-05-06 07:03 5.63020 0.00690 7425 ft 273 kts 106°
2026-05-06 07:03 5.62478 0.02525 8173 ft 276 kts 105°
2026-05-06 07:04 5.61932 0.04377 8933 ft 276 kts 105°
2026-05-06 07:04 5.61389 0.06223 9743 ft 275 kts 105°
2026-05-06 07:04 5.60847 0.08070 10437 ft 277 kts 105°
2026-05-06 07:04 5.60297 0.09942 11045 ft 282 kts 105°
2026-05-06 07:05 5.59740 0.11842 11662 ft 286 kts 105°
2026-05-06 07:05 5.59177 0.13764 12289 ft 289 kts 105°
2026-05-06 07:05 5.58603 0.15706 12927 ft 292 kts 106°
2026-05-06 07:05 5.58010 0.17670 13525 ft 297 kts 106°
2026-05-06 07:06 5.57396 0.19710 13775 ft 316 kts 105°
2026-05-06 07:06 5.56746 0.21890 13918 ft 336 kts 105°
2026-05-06 07:06 5.56062 0.24199 14091 ft 354 kts 105°
2026-05-06 07:06 5.55354 0.26602 14534 ft 362 kts 105°
2026-05-06 07:07 5.54637 0.29043 15133 ft 364 kts 105°
2026-05-06 07:07 5.53930 0.31452 16083 ft 357 kts 105°
2026-05-06 07:07 5.53228 0.33849 16784 ft 359 kts 105°
2026-05-06 07:07 5.52519 0.36273 17348 ft 365 kts 105°
2026-05-06 07:08 5.51800 0.38734 17904 ft 370 kts 105°
2026-05-06 07:08 5.51073 0.41223 18483 ft 373 kts 105°
2026-05-06 07:08 5.50340 0.43731 19034 ft 376 kts 105°
2026-05-06 07:08 5.49602 0.46256 19585 ft 379 kts 105°
2026-05-06 07:09 5.48867 0.48769 20113 ft 382 kts 105°
2026-05-06 07:09 5.48116 0.51337 20660 ft 385 kts 105°
2026-05-06 07:09 5.47359 0.53928 21194 ft 389 kts 106°
2026-05-06 07:09 5.46594 0.56542 21733 ft 392 kts 106°
2026-05-06 07:10 5.45822 0.59181 22254 ft 396 kts 106°
2026-05-06 07:10 5.45044 0.61840 22782 ft 399 kts 106°
2026-05-06 07:10 5.44258 0.64523 23294 ft 403 kts 106°
2026-05-06 07:10 5.43467 0.67227 23763 ft 406 kts 106°
2026-05-06 07:11 5.42667 0.69958 24190 ft 409 kts 106°
2026-05-06 07:11 5.41865 0.72700 24636 ft 411 kts 106°
2026-05-06 07:11 5.41057 0.75458 25077 ft 414 kts 106°
2026-05-06 07:11 5.40243 0.78238 25517 ft 417 kts 106°
2026-05-06 07:12 5.39422 0.81038 25951 ft 420 kts 106°
2026-05-06 07:12 5.38623 0.83865 26365 ft 422 kts 104°
2026-05-06 07:12 5.37897 0.86726 26784 ft 425 kts 104°
2026-05-06 07:12 5.37198 0.89624 27206 ft 428 kts 103°
2026-05-06 07:13 5.36503 0.92534 27630 ft 431 kts 103°
2026-05-06 07:13 5.35800 0.95461 28036 ft 433 kts 104°
2026-05-06 07:13 5.35084 0.98409 28438 ft 436 kts 104°
2026-05-06 07:13 5.34357 1.01375 28824 ft 439 kts 104°
2026-05-06 07:14 5.33621 1.04364 29095 ft 445 kts 104°
2026-05-06 07:14 5.32095 1.10527 29247 ft 464 kts 104°
2026-05-06 07:15 5.30521 1.16879 29395 ft 480 kts 104°
2026-05-06 07:15 5.28888 1.23469 29510 ft 493 kts 104°
2026-05-06 07:16 5.27206 1.30258 29622 ft 502 kts 104°
2026-05-06 07:16 5.26361 1.33667 29763 ft 504 kts 104°
2026-05-06 07:16 5.25514 1.37084 29986 ft 504 kts 104°
2026-05-06 07:16 5.24681 1.40442 30324 ft 500 kts 104°
2026-05-06 07:17 5.23847 1.43806 30815 ft 494 kts 104°
2026-05-06 07:17 5.23020 1.47138 31230 ft 490 kts 104°
2026-05-06 07:17 5.22188 1.50489 31573 ft 488 kts 104°
2026-05-06 07:17 5.21380 1.53747 31852 ft 488 kts 104°
2026-05-06 07:18 5.20559 1.57050 32092 ft 489 kts 104°
2026-05-06 07:18 5.19733 1.60360 32334 ft 489 kts 104°
2026-05-06 07:18 5.18893 1.63656 32615 ft 488 kts 104°
2026-05-06 07:18 5.18044 1.66951 32847 ft 488 kts 104°
2026-05-06 07:19 5.17188 1.70264 32888 ft 491 kts 104°
2026-05-06 07:19 5.15472 1.76921 32942 ft 497 kts 104°
2026-05-06 07:20 5.13736 1.83672 33084 ft 501 kts 104°
2026-05-06 07:20 5.12867 1.87057 33318 ft 500 kts 104°
2026-05-06 07:20 5.12001 1.90428 33580 ft 498 kts 104°
2026-05-06 07:20 5.11139 1.93784 33840 ft 496 kts 104°
2026-05-06 07:21 5.10276 1.97142 33867 ft 498 kts 104°
2026-05-06 07:21 5.08556 2.03834 33937 ft 492 kts 104°
2026-05-06 07:22 5.06854 2.10451 33940 ft 489 kts 104°
2026-05-06 07:22 5.05155 2.17055 33942 ft 489 kts 104°
2026-05-06 07:23 5.03456 2.23656 33938 ft 489 kts 104°
2026-05-06 07:23 5.01758 2.30269 33942 ft 490 kts 104°
2026-05-06 07:24 5.00333 2.35822 33941 ft 491 kts 104°
2026-05-06 07:24 4.98625 2.42471 33938 ft 493 kts 104°
2026-05-06 07:25 4.96912 2.49136 33943 ft 494 kts 104°